GW0446 Weather Reports


time (UTC)temp
C
wind
direction
speed
KPH
gust
KPH
rain 1hr
cm
rain 24hr
cm
rain mn
cm
humidity
%
barometer
mb
20260506094206 11 62 3.2 14.5 0.00 0.84 0.13 86 1009.7
20260506093706 11 31 4.8 14.5 0.00 0.86 0.13 87 1009.8
20260506093206 11 31 3.2 14.5 0.00 0.89 0.13 86 1009.6
20260506092710 11 312 4.8 12.9 0.00 0.91 0.13 85 1009.7
20260506092212 11 85 6.4 12.9 0.00 0.91 0.13 86 1009.8
20260506091206 11 351 6.4 12.9 0.00 0.91 0.13 89 1009.2
20260506090706 11 351 4.8 16.1 0.00 0.91 0.13 88 1009.2
20260506090206 11 334 3.2 16.1 0.00 0.91 0.13 89 1009.1
20260506085705 11 341 4.8 12.9 0.00 0.94 0.13 89 1009.3
20260506085206 11 279 6.4 14.5 0.00 0.94 0.13 89 1009.1
20260506084705 11 3 4.8 16.1 0.00 0.94 0.13 90 1008.9
20260506084205 11 322 4.8 16.1 0.00 0.94 0.13 90 1008.9
20260506083207 11 327 6.4 14.5 0.00 0.94 0.13 91 1008.6
20260506081705 10 304 8.0 14.5 0.00 0.99 0.13 93 1008.5
20260506081206 10 350 1.6 14.5 0.00 0.99 0.13 94 1008.8
20260506080706 10 31 6.4 9.7 0.00 0.99 0.13 94 1008.5
20260506080206 10 32 3.2 11.3 0.00 1.02 0.13 95 1008.4
20260506073206 10 311 1.6 11.3 0.00 1.17 0.13 96 1008.7
20260506072705 10 12 3.2 11.3 0.00 1.22 0.13 96 1008.6
20260506072204 10 9 3.2 12.9 0.00 1.24 0.13 96 1008.8
20260506071705 10 314 1.6 12.9 0.00 1.32 0.13 96 1008.7
20260506071205 10 10 6.4 9.7 0.00 1.37 0.13 96 1008.7
20260506070704 10 356 3.2 9.7 0.00 1.47 0.13 96 1008.5
20260506070204 10 14 8.0 12.9 0.00 1.55 0.13 96 1008.7
20260506062205 10 286 4.8 11.3 0.00 2.16 0.10 96 1008.3
20260506061708 10 2 1.6 11.3 0.00 2.26 0.10 97 1007.8
20260506060705 10 40 3.2 9.7 0.00 2.36 0.10 96 1008.0
20260506060209 10 318 3.2 9.7 0.00 2.41 0.10 96 1007.7
20260506051204 10 317 6.4 11.3 0.00 2.87 0.10 97 1007.1
20260506050704 10 6 4.8 12.9 0.00 2.92 0.10 97 1007.1
20260506050205 10 63 4.8 12.9 0.03 2.92 0.10 97 1007.2
20260506044707 10 318 8.0 19.3 0.03 2.97 0.10 97 1006.9
20260506044205 10 294 9.7 16.1 0.03 2.97 0.10 97 1006.8
20260506043705 10 330 3.2 17.7 0.03 2.97 0.10 97 1006.8
20260506043208 10 263 11.3 17.7 0.05 2.97 0.10 98 1006.8
20260506042712 10 288 6.4 16.1 0.05 2.97 0.10 98 1006.8
20260506042205 10 324 4.8 16.1 0.05 2.97 0.10 98 1006.8
20260506041205 10 300 4.8 12.9 0.05 2.97 0.10 98 1006.6
20260506040704 10 306 4.8 12.9 0.05 2.97 0.10 98 1006.8
20260506040205 10 293 3.2 11.3 0.03 2.97 0.10 98 1006.7
20260506035705 10 293 4.8 16.1 0.03 2.97 0.10 98 1006.9
20260506034705 11 318 0.0 12.9 0.03 2.97 0.08 98 1006.7
20260506034205 11 319 3.2 9.7 0.03 2.97 0.08 98 1006.9
20260506033708 11 262 1.6 9.7 0.03 2.97 0.08 98 1006.6
20260506032205 11 279 8.0 9.7 0.00 2.97 0.05 98 1006.7
20260506031705 11 305 3.2 4.8 0.00 2.97 0.05 98 1007.0
20260506031205 11 313 3.2 3.2 0.00 2.97 0.05 98 1006.9
20260506030205 11 45 1.6 6.4 0.03 2.97 0.05 98 1006.9
20260506025707 11 340 3.2 6.4 0.03 2.97 0.05 98 1007.0
20260506025205 11 21 0.0 6.4 0.03 2.97 0.05 98 1006.9
20260506024708 11 58 3.2 6.4 0.03 2.97 0.05 98 1007.1
20260506024205 11 342 0.0 6.4 0.00 2.95 0.05 98 1006.9
20260506023705 11 5 1.6 6.4 0.00 2.95 0.05 98 1006.9
20260506022204 11 236 0.0 6.4 0.00 2.95 0.05 98 1007.2
20260506021706 11 346 0.0 8.0 0.03 2.95 0.05 98 1006.8
20260506021207 11 276 3.2 8.0 0.03 2.95 0.05 98 1006.9
20260506020705 11 251 3.2 6.4 0.05 2.95 0.05 98 1007.0
20260506020207 11 245 3.2 4.8 0.03 2.95 0.05 98 1007.0
20260506015706 11 251 3.2 4.8 0.05 2.95 0.05 98 1007.1
20260506015206 11 268 0.0 3.2 0.05 2.95 0.05 98 1007.1
20260506014706 11 0 0.0 4.8 0.05 2.95 0.05 98 1006.9
20260506014157 11 261 3.2 6.4 0.05 2.95 0.05 98 1007.1
20260506013656 11 266 0.0 6.4 0.05 2.95 0.05 98 1007.0
20260506013158 11 248 4.8 8.0 0.05 2.95 0.05 98 1006.6
20260506012656 11 243 3.2 8.0 0.05 2.95 0.05 98 1007.2
20260506012158 11 238 4.8 6.4 0.05 2.95 0.05 98 1007.2
20260506011656 11 249 3.2 6.4 0.03 2.92 0.03 98 1007.1
20260506011156 11 240 1.6 6.4 0.03 2.92 0.03 97 1007.2
20260506005655 11 242 4.8 8.0 0.00 2.90 0.00 98 1007.4
20260506004156 11 241 4.8 8.0 0.00 2.90 0.00 98 1007.2
20260506003701 11 247 3.2 6.4 0.00 2.90 0.00 98 1007.4
20260506003201 11 251 4.8 8.0 0.00 2.90 0.00 98 1007.3
20260506002657 11 239 4.8 8.0 0.00 2.90 0.00 98 1007.4
20260506001659 11 274 3.2 8.0 0.00 2.90 0.00 97 1007.5
20260506001156 11 239 4.8 9.7 0.00 2.90 0.00 97 1007.6
20260506000656 11 258 3.2 9.7 0.00 2.90 0.00 97 1007.5
20260506000156 11 231 4.8 8.0 0.00 2.90 0.00 97 1007.5
20260505235156 11 244 4.8 9.7 0.00 2.90 0.00 97 1007.5
20260505234655 11 236 4.8 6.4 0.00 2.90 0.00 97 1007.2
20260505233656 11 253 3.2 9.7 0.00 2.90 0.00 97 1007.3
20260505233158 11 250 6.4 9.7 0.00 2.90 0.00 97 1007.3
20260505232655 11 246 3.2 6.4 0.00 2.90 0.00 97 1007.2
20260505232156 11 243 4.8 8.0 0.00 2.90 0.00 97 1007.3
20260505231656 11 246 4.8 9.7 0.00 2.90 0.00 96 1007.3
20260505231156 11 238 6.4 11.3 0.00 2.90 0.00 96 1007.5
20260505230156 11 244 4.8 6.4 0.00 2.90 0.00 96 1007.8
20260505225656 12 251 3.2 8.0 0.00 2.90 0.00 96 1007.7
20260505225156 12 245 1.6 8.0 0.00 2.90 0.00 96 1008.0
20260505224656 12 254 3.2 6.4 0.00 2.90 0.00 96 1007.7
20260505224208 12 245 3.2 6.4 0.00 2.90 0.00 96 1007.9
20260505223159 12 237 0.0 6.4 0.00 2.90 0.00 96 1007.8
20260505222656 12 248 1.6 6.4 0.00 2.90 0.00 96 1007.8
20260505222157 12 236 3.2 6.4 0.00 2.90 0.00 96 1007.9
20260505221656 12 254 3.2 4.8 0.00 2.90 0.00 96 1007.8
20260505221155 12 241 3.2 4.8 0.00 2.90 0.00 97 1007.9
20260505220655 12 250 0.0 3.2 0.00 2.90 0.00 97 1008.0
20260505220156 12 267 0.0 3.2 0.00 2.90 0.00 97 1008.0
20260505215656 12 246 3.2 3.2 0.00 2.90 2.90 97 1008.1
20260505215155 12 258 0.0 3.2 0.00 2.90 2.90 97 1007.9
20260505214657 11 254 0.0 3.2 0.00 2.90 2.90 97 1008.1
20260505214159 11 261 0.0 4.8 0.00 2.90 2.90 97 1008.0
20260505213657 11 256 0.0 4.8 0.00 2.90 2.90 97 1007.9
20260505213158 11 249 1.6 4.8 0.00 2.90 2.90 97 1007.7
20260505212658 11 353 0.0 6.4 0.00 2.90 2.90 96 1007.7
20260505211657 11 246 3.2 6.4 0.00 2.90 2.90 96 1007.8
20260505211157 11 275 3.2 8.0 0.00 2.90 2.90 96 1007.6
20260505210658 11 246 3.2 8.0 0.00 2.90 2.90 96 1007.7
20260505210158 11 233 4.8 6.4 0.00 2.90 2.90 96 1007.6
20260505205658 12 240 3.2 9.7 0.00 2.90 2.90 96 1007.8
20260505205157 12 323 3.2 9.7 0.00 2.90 2.90 96 1007.7
20260505204703 12 317 3.2 8.0 0.00 2.90 2.90 96 1008.0
20260505204157 12 263 3.2 8.0 0.00 2.90 2.90 96 1008.0
20260505203657 12 250 4.8 8.0 0.00 2.90 2.90 96 1007.9
20260505202658 12 245 6.4 9.7 0.00 2.90 2.90 96 1008.0
20260505202156 12 253 1.6 9.7 0.00 2.90 2.90 96 1007.9
20260505201658 12 249 4.8 8.0 0.00 2.90 2.90 96 1008.2
20260505200657 12 260 3.2 9.7 0.00 2.90 2.90 96 1008.1
20260505195657 12 226 8.0 9.7 0.00 2.90 2.90 96 1007.9
20260505195200 12 261 3.2 9.7 0.00 2.90 2.90 96 1008.0
20260505194657 12 245 6.4 8.0 0.00 2.90 2.90 96 1007.8
20260505194157 12 250 3.2 8.0 0.00 2.90 2.90 95 1007.7
20260505193657 12 297 1.6 8.0 0.00 2.90 2.90 95 1007.6
20260505193157 12 303 3.2 8.0 0.00 2.90 2.90 95 1007.5
20260505192710 12 243 8.0 8.0 0.00 2.90 2.90 95 1007.8
20260505192158 12 245 8.0 8.0 0.00 2.90 2.90 95 1007.7
20260505191657 12 226 0.0 9.7 0.00 2.90 2.90 95 1007.5
20260505191158 12 287 1.6 9.7 0.00 2.90 2.90 95 1007.4
20260505190657 12 253 4.8 9.7 0.00 2.90 2.90 95 1007.4
20260505185656 12 271 0.0 9.7 0.00 2.90 2.90 95 1007.2
20260505185156 12 301 3.2 9.7 0.00 2.90 2.90 94 1007.4
20260505184656 12 289 1.6 9.7 0.00 2.90 2.90 94 1007.3
20260505184156 12 308 3.2 8.0 0.00 2.90 2.90 94 1007.3
20260505183656 12 244 6.4 9.7 0.00 2.90 2.90 94 1007.1
20260505183157 12 284 3.2 9.7 0.00 2.90 2.90 94 1007.0
20260505182656 12 274 6.4 19.3 0.00 2.90 2.90 94 1007.2
20260505181643 12 294 11.3 19.3 0.00 2.90 2.90 93 1007.1
20260505181143 12 287 6.4 17.7 0.00 2.90 2.90 93 1007.1
20260505180655 12 259 11.3 17.7 0.00 2.90 2.90 93 1007.0
20260505180144 12 242 4.8 16.1 0.00 2.90 2.90 94 1007.1
20260505175643 12 290 4.8 14.5 0.00 2.90 2.90 94 1007.2
20260505175143 13 237 9.7 12.9 0.00 2.92 2.90 94 1007.2
20260505174643 13 272 6.4 16.1 0.00 2.92 2.90 93 1006.9
20260505173642 13 304 3.2 17.7 0.00 2.92 2.90 93 1006.9
20260505173145 13 267 9.7 17.7 0.03 2.92 2.90 93 1006.9
20260505172643 13 280 6.4 16.1 0.03 2.92 2.90 94 1006.9
20260505171642 13 245 6.4 14.5 0.03 2.92 2.90 94 1006.7
20260505171146 13 286 3.2 17.7 0.03 2.92 2.90 94 1006.9
20260505170642 13 241 4.8 17.7 0.03 2.92 2.90 94 1006.8
20260505170142 13 251 3.2 14.5 0.03 2.92 2.90 94 1006.8
20260505165642 13 216 9.7 16.1 0.03 2.92 2.90 94 1006.8
20260505164641 13 249 6.4 19.3 0.00 2.90 2.90 95 1006.7
20260505164144 13 255 9.7 19.3 0.00 2.90 2.90 95 1006.7
20260505163641 13 242 9.7 17.7 0.00 2.90 2.90 95 1006.6
20260505163142 13 242 9.7 19.3 0.00 2.90 2.87 95 1006.6
20260505162142 13 242 12.9 19.3 0.00 2.90 2.87 95 1006.6
20260505161642 13 244 8.0 24.1 0.00 2.90 2.87 95 1006.6
20260505161142 13 242 11.3 24.1 0.00 2.90 2.87 95 1006.4
20260505160642 13 244 8.0 25.7 0.00 2.90 2.87 94 1006.5
20260505153142 14 247 9.7 32.2 0.00 2.90 2.87 92 1006.0
20260505152642 14 241 9.7 32.2 0.00 2.90 2.87 92 1006.0
20260505152142 14 235 9.7 30.6 0.00 2.90 2.87 92 1006.0
20260505151142 14 251 11.3 30.6 0.03 2.90 2.87 92 1006.2
20260505150641 14 240 4.8 30.6 0.03 2.90 2.87 92 1006.1
20260505150142 14 246 12.9 22.5 0.03 2.87 2.87 91 1006.1
20260505140642 15 248 4.8 20.9 0.05 2.87 2.87 92 1006.5
20260505140145 15 237 3.2 20.9 0.05 2.87 2.84 91 1005.8
20260505130143 13 238 9.7 19.3 0.10 2.82 2.79 94 1006.6
20260505124642 13 269 4.8 12.9 0.13 2.77 2.77 96 1006.6
20260505124142 13 247 3.2 14.5 0.13 2.77 2.77 96 1006.5
20260505122642 13 242 4.8 17.7 0.13 2.77 2.74 95 1006.5
20260505122142 14 235 16.1 17.7 0.10 2.72 2.72 95 1006.3
20260505121645 14 236 4.8 8.0 0.10 2.72 2.72 95 1006.3
20260505121142 14 250 3.2 8.0 0.10 2.72 2.69 95 1006.3
20260505120644 14 205 0.0 8.0 0.10 2.69 2.69 95 1006.3
20260505120142 14 289 0.0 11.3 0.10 2.69 2.69 95 1006.2
20260505115642 14 247 4.8 12.9 0.10 2.69 2.69 94 1006.4
20260505114642 14 230 14.5 17.7 0.13 2.67 2.67 95 1006.3
20260505114142 14 245 6.4 8.0 0.15 2.67 2.64 95 1006.4
20260505113642 15 103 0.0 6.4 0.15 2.64 2.64 96 1006.3
20260505113155 15 107 1.6 3.2 0.18 2.64 2.64 96 1006.6
20260505112642 15 292 0.0 3.2 0.18 2.64 2.64 97 1006.5
20260505112141 15 95 0.0 3.2 0.20 2.64 2.62 97 1006.5
20260505111145 14 99 0.0 3.2 0.28 2.62 2.62 97 1006.4
20260505110642 14 307 0.0 3.2 0.28 2.62 2.59 97 1006.6
20260505102130 13 117 0.0 4.8 0.28 2.41 2.41 97 1006.9
20260505101630 13 107 1.6 4.8 0.25 2.39 2.39 97 1006.8
20260505100633 13 96 3.2 6.4 0.20 2.31 2.31 97 1006.8
20260505100130 13 58 3.2 6.4 0.18 2.31 2.29 96 1007.0
20260505095630 13 76 3.2 9.7 0.15 2.26 2.26 97 1006.7